Current Version              Previous Version:    01  02  03  04  05  06  07  08  09  10  11  12  13  14  15  16  17  18  19  20  21  22  23  24  25  26  27  28  29  30  
   31  32  33  34  35  36  37  38  39  40  41  42  43  44  45  46  47  48  49  50  51  52  53  54  55  56  57  58  59  60  

[Printable]
283
ASUS44 KFWD 242201
RWRTX
NORTH TEXAS HOURLY WEATHER ROUNDUP
NATIONAL WEATHER SERVICE FORT WORTH TX
500 PM CDT FRI OCT 24 2014

NOTE: "FAIR" INDICATES FEW OR NO CLOUDS BELOW 12,000 FEET WITH NO
SIGNIFICANT WEATHER AND/OR OBSTRUCTIONS TO VISIBILITY.

TXZ118-119-242300-
DALLAS/FORT WORTH METROPLEX

CITY           SKY/WX    TMP DP  RH WIND       PRES   REMARKS
DFW AIRPORT    MOSUNNY   83  60  45 S10       30.07S
DALLAS LOVE    MOSUNNY   84  60  44 SE5       30.07S
FTW MEACHAM    SUNNY     85  59  41 S7        30.06S
DAL-EXECUTIVE  SUNNY     84  60  44 VRB5      30.07S
FTW-ALLIANCE   MOSUNNY   84  58  40 S7        30.06S
FTW-NAS-JRB    MOSUNNY   89  58  34 S10       30.10S
FTW-SPINKS     SUNNY     84  59  42 S7        30.09S
ARLINGTON      SUNNY     85  59  41 S8        30.07S
GRAND PRAIRIE  SUNNY     82  63  51 MISG      30.08S
ADDISON        SUNNY     82  59  44 S7        30.08
MESQUITE       SUNNY     82  57  42 SE7       30.08F
LANCASTER      SUNNY     83  57  41 S3        30.08F
$$

TXZ091>094-102>105-117-120-121-131>134-242300-
NORTH CENTRAL TEXAS

CITY           SKY/WX    TMP DP  RH WIND       PRES   REMARKS
SHRMAN/DENISON SUNNY     82  64  52 S12       30.08S
GAINESVILLE    SUNNY     82  61  49 S12       30.08F
BRIDGEPORT     SUNNY     86  61  42 S8        30.07S
DENTON         SUNNY     84  60  44 S10       30.06S
MCKINNEY       SUNNY     82  60  47 SW8       30.08S
ROCKWALL       SUNNY     81  62  50 SW8       30.08S
TERRELL        SUNNY     81  60  48 S7        30.09S
WAXAHACHIE     SUNNY     83  61  47 S8        30.09F
CLEBURNE       SUNNY     84  61  45 S7        30.09S
GRANBURY       SUNNY     86  58  38 CALM      30.08R
$$

TXZ083>090-098>101-113>116-127>130-139>142-154-155-242300-
WESTERN NORTH TEXAS

CITY           SKY/WX    TMP DP  RH WIND       PRES   REMARKS
WICHITA FALLS  SUNNY     86  61  42 S14       30.03S
WF-KICKAPOO    SUNNY     87  56  34 SW9G16    30.05S
VERNON         SUNNY     90  50  25 SW15      30.03F
ABILENE        SUNNY     86  53  32 S8        30.09S
ABILENE-DYESS  SUNNY     87  55  33 SW10      30.07S
MINERAL WELLS  SUNNY     86  57  37 S9        30.05F
STEPHENVILLE   SUNNY     84  57  39 S3        30.11F
COMANCHE       SUNNY     85  58  39 CALM      30.09S
COLEMAN        SUNNY     87  56  34 SW3       30.09S
$$

TXZ143>147-156>162-174-175-242300-
CENTRAL TEXAS

CITY           SKY/WX    TMP DP  RH WIND       PRES   REMARKS
WACO           SUNNY     83  59  44 S8        30.08F
WACO-TSTC      SUNNY     82  59  44 SE5       30.08F
WACO-MCGREGOR  MOSUNNY   84  59  42 SE6       30.10S
CORSICANA      SUNNY     81  59  47 SW3       30.10F
MEXIA          SUNNY     80  60  50 CALM      30.09F
HEARNE         SUNNY     81  58  45 CALM      30.10F HAZE
TEMPLE         SUNNY     82  57  42 S6        30.09S
KILLEEN        MOSUNNY   84  58  40 SW6       30.09S
KILLEEN-SKYLRK MOSUNNY   82  61  47 E6        30.08S
GATESVILLE     SUNNY     84  59  42 S6        30.11S
HAMILTON       MOSUNNY   85  57  38 SE8       30.11S
LAMPASAS       SUNNY     83  60  45 SE6       30.09F
$$

TXZ095>097-106>112-122>126-135>138-148>153-164>167-242300-
EAST TEXAS

CITY           SKY/WX    TMP DP  RH WIND       PRES   REMARKS
PARIS          MOSUNNY   79  57  47 S7        30.10S
SULPHUR SPRNGS MOSUNNY   80  57  45 S6        30.11S
MOUNT PLEASANT PTSUNNY   79  57  46 SE5       30.11F
MINEOLA        SUNNY     79  59  50 CALM      30.10F
TYLER          SUNNY     79  57  46 S6        30.10S
LONGVIEW       SUNNY     78  56  46 SE5       30.10F
MARSHALL       SUNNY     79  55  43 CALM      30.12F
ATHENS         SUNNY     77  57  50 S3        30.09S
PALESTINE      SUNNY     79  58  49 CALM      30.11F
JACKSONVILLE   SUNNY     78  57  47 E3        30.13F
HENDERSON      SUNNY     78  56  45 NE3       30.12S
NACOGDOCHES    SUNNY     79  55  44 NW5       30.11S
LUFKIN         SUNNY     81  56  42 NE6       30.11S
$$

SUPPLEMENTAL OBSERVATIONS (CENTRAL)

CITY           SKY/WX    TMP DP  RH WIND       PRES   REMARKS
$$

SUPPLEMENTAL OBSERVATIONS (WEST)

CITY           SKY/WX    TMP DP  RH WIND       PRES   REMARKS
$$

SUPPLEMENTAL OBSERVATIONS (EAST)

CITY           SKY/WX    TMP DP  RH WIND       PRES   REMARKS
$$

SUPPLEMENTAL OBSERVATIONS ARE A COLLECTION OF AUTOMATED INSTRUMENTS
THAT ARE MAINTAINED BY A VARIETY OF FEDERAL AND STATE AGENCIES.
CERTAIN ELEMENTS...SUCH AS HUMIDITY VALUES AND SUSTAINED WIND
SPEEDS...MAY BE APPROXIMATED.